EW5024 Weather Reports


Display with metric or nautical units.
time (UTC)temp
F
wind
direction
speed
MPH
gust
MPH
rain 1hr
in
rain 24hr
in
rain mn
in
humidity
%
barometer
mb
20260509004545 54 220 0.0 0.0 0.00 0.00 0.00 79 1018.3
20260509003048 54 220 0.0 0.0 0.00 0.00 0.00 79 1018.2
20260509001541 55 220 0.0 0.0 0.00 0.00 0.00 78 1018.1
20260509000039 55 220 0.0 0.0 0.00 0.00 0.00 78 1017.9
20260508234538 55 220 0.0 1.0 0.00 0.00 0.00 77 1018.0
20260508233035 56 220 0.0 0.0 0.00 0.00 0.00 77 1017.9
20260508231533 56 221 0.0 1.0 0.00 0.00 0.00 76 1017.8
20260508230040 57 221 0.0 3.0 0.00 0.00 0.00 75 1017.8
20260508224537 57 220 0.0 1.0 0.00 0.00 0.00 74 1017.9
20260508223027 58 220 0.0 0.0 0.00 0.00 0.00 73 1017.9
20260508221538 59 220 0.0 2.0 0.00 0.00 0.00 71 1017.8
20260508220019 60 177 0.0 2.0 0.00 0.00 0.00 69 1017.7
20260508214518 60 177 1.0 3.0 0.00 0.00 0.00 68 1017.6
20260508213022 60 180 0.0 2.0 0.00 0.00 0.00 68 1017.6
20260508211516 62 181 2.0 3.0 0.00 0.00 0.00 64 1017.4
20260508210014 63 118 1.0 10.0 0.00 0.00 0.00 63 1017.2
20260508204514 63 99 3.0 6.0 0.00 0.00 0.00 62 1017.1
20260508203013 64 173 2.0 4.0 0.00 0.00 0.00 62 1016.9
20260508201513 64 149 2.0 10.0 0.00 0.00 0.00 60 1016.7
20260508200011 65 207 5.0 10.0 0.00 0.00 0.00 58 1016.5
20260508194511 66 148 6.0 10.0 0.00 0.00 0.00 56 1016.2
20260508193010 66 175 6.0 14.0 0.00 0.00 0.00 54 1016.2
20260508191510 67 160 6.0 15.0 0.00 0.00 0.00 53 1015.9
20260508190009 67 172 6.0 11.0 0.00 0.00 0.00 51 1015.6
20260508184509 67 126 5.0 14.0 0.00 0.00 0.00 51 1015.3
20260508183110 67 146 7.0 12.0 0.00 0.00 0.00 48 1015.1
20260508181514 68 167 7.0 13.0 0.00 0.00 0.00 47 1014.9
20260508180005 68 161 7.0 11.0 0.00 0.00 0.00 47 1014.7
20260508174504 68 134 6.0 14.0 0.00 0.00 0.00 47 1014.6
20260508173003 68 173 10.0 20.0 0.00 0.00 0.00 46 1014.6
20260508171503 68 193 12.0 22.0 0.00 0.00 0.00 46 1014.4
20260508170002 68 217 14.0 22.0 0.00 0.00 0.00 49 1014.4
20260508164503 68 186 13.0 24.0 0.00 0.00 0.00 48 1014.3
20260508163100 68 179 14.0 27.0 0.00 0.00 0.00 49 1014.1
20260508161602 69 171 13.0 30.0 0.00 0.00 0.00 49 1014.0
20260508160059 70 161 14.0 24.0 0.00 0.00 0.00 47 1013.9
20260508154601 69 188 13.0 21.0 0.00 0.00 0.00 47 1013.8
20260508153058 69 157 10.0 22.0 0.00 0.00 0.00 47 1013.7
20260508151558 69 174 11.0 22.0 0.00 0.00 0.00 47 1013.8
20260508150056 69 217 12.0 24.0 0.00 0.00 0.00 48 1013.9
20260508144554 69 215 13.0 23.0 0.00 0.00 0.00 48 1013.9
20260508143053 70 150 11.0 19.0 0.00 0.00 0.00 47 1014.0
20260508141552 71 188 7.0 19.0 0.00 0.00 0.00 47 1014.1
20260508140051 71 200 11.0 18.0 0.00 0.00 0.00 46 1014.0
20260508134549 71 220 9.0 21.0 0.00 0.00 0.00 46 1014.2
20260508133048 71 184 9.0 19.0 0.00 0.00 0.00 46 1014.3
20260508131546 71 200 11.0 22.0 0.00 0.00 0.00 46 1014.5
20260508130105 71 188 12.0 18.0 0.00 0.00 0.00 45 1014.5
20260508124543 71 180 11.0 22.0 0.00 0.00 0.00 45 1014.6
20260508123042 71 123 11.0 18.0 0.00 0.00 0.00 44 1014.7
20260508121552 71 193 9.0 19.0 0.00 0.00 0.00 45 1014.9
20260508120040 72 207 8.0 16.0 0.00 0.00 0.00 46 1014.8
20260508114539 72 193 7.0 21.0 0.00 0.00 0.00 45 1014.9
20260508113042 71 166 7.0 16.0 0.00 0.00 0.00 45 1015.0
20260508111536 72 159 9.0 16.0 0.00 0.00 0.00 44 1015.1
20260508110036 71 148 5.0 18.0 0.00 0.00 0.00 46 1015.2
20260508104559 71 164 10.0 15.0 0.00 0.00 0.00 46 1015.3
20260508103041 72 128 5.0 10.0 0.00 0.00 0.00 47 1015.4
20260508101527 70 59 2.0 10.0 0.00 0.00 0.00 50 1015.6
20260508100024 70 129 1.0 7.0 0.00 0.00 0.00 51 1015.7
20260508094522 70 118 1.0 7.0 0.00 0.00 0.00 52 1016.0
20260508093019 68 119 3.0 7.0 0.00 0.00 0.00 55 1016.1
20260508091517 67 343 1.0 6.0 0.00 0.00 0.00 58 1016.2
20260508090017 67 92 1.0 7.0 0.00 0.00 0.00 58 1016.4
20260508084511 65 92 2.0 6.0 0.00 0.00 0.00 60 1016.5
20260508083009 65 278 2.0 7.0 0.00 0.00 0.00 60 1016.6
20260508081506 64 350 2.0 4.0 0.00 0.00 0.00 62 1016.8
20260508080005 63 11 1.0 4.0 0.00 0.00 0.00 66 1016.9
20260508074501 62 298 1.0 6.0 0.00 0.00 0.00 68 1017.0
20260508073059 61 341 1.0 5.0 0.00 0.00 0.00 69 1017.0
20260508071601 60 25 4.0 8.0 0.00 0.00 0.00 70 1016.9
20260508070137 59 24 3.0 7.0 0.00 0.00 0.00 71 1017.1
20260508064556 58 5 4.0 8.0 0.00 0.00 0.00 73 1017.2
20260508063046 58 290 2.0 4.0 0.00 0.00 0.00 73 1017.3
20260508061547 57 312 1.0 4.0 0.00 0.00 0.00 76 1017.3
20260508060040 56 341 2.0 4.0 0.00 0.00 0.00 77 1017.2
20260508054542 56 340 1.0 3.0 0.00 0.00 0.00 79 1017.2
20260508053038 55 336 0.0 2.0 0.00 0.00 0.00 80 1017.2
20260508051535 55 333 0.0 2.0 0.00 0.00 0.00 81 1017.1
20260508050038 54 333 0.0 2.0 0.00 0.00 0.00 80 1016.9
20260508044534 54 332 0.0 0.0 0.00 0.00 0.00 80 1016.8
20260508043051 54 55 1.0 3.0 0.00 0.00 0.00 81 1016.8
20260508041534 54 336 0.0 0.0 0.00 0.00 0.00 81 1016.9
20260508040032 54 336 0.0 2.0 0.00 0.00 0.00 81 1016.8
20260508034530 54 334 0.0 3.0 0.00 0.00 0.00 81 1016.6
20260508033031 54 17 0.0 3.0 0.00 0.00 0.00 81 1016.7
20260508031528 54 319 2.0 4.0 0.00 0.00 0.00 80 1016.6
20260508030041 54 285 0.0 0.0 0.00 0.00 0.00 80 1016.5
20260508024532 55 285 0.0 5.0 0.00 0.01 0.00 79 1016.5
20260508023025 55 165 3.0 7.0 0.00 0.01 0.00 79 1016.5
20260508021524 54 314 0.0 0.0 0.00 0.01 0.00 80 1016.4
20260508020024 54 314 0.0 0.0 0.00 0.01 0.00 80 1016.5
20260508014524 54 314 0.0 3.0 0.00 0.01 0.00 80 1016.6
20260508013023 55 332 0.0 0.0 0.00 0.01 0.00 79 1016.5
20260508011522 55 332 0.0 0.0 0.00 0.01 0.00 79 1016.5
20260508010025 54 332 0.0 0.0 0.00 0.01 0.00 80 1016.4